"startDT [UTC]","vpos","CH4 [ppm]","stdev(CH4) [ppm]","CO2 [ppm]","stdev(CO2) [ppm]","H2O [ppm]","stdev(H2O)","p_LGR [torr]","T_LGR [C]","mt1_LGR [us]","mt2_LGR [us]","T_ECpre [C]","T_EC1 [C]","T_EC2 [C]","p_inlet [hPa]","p_in [hPa]","p_out [hPa]","T_inlet [C]","RH_inlet [%]","dwpt_inlet [C]","T_vent [C]","RH_vent [%]","dwpt_vent [C]","flow_vent [l min-1]","flow_inlet [l min-1]","dwpt_sample [C]","T_room [C]"
2012-06-13 00:00:00,0.0,,,,,,,,,,,1.07,-25.60,-23.73,-64,552,-944,29.0,17.4,1.8,29.0,1.1,-31.0,5.73,2.35,-26.5,33.0
2012-06-13 00:01:00,0.0,,,,,,,,,,,1.07,-25.60,-24.07,-64,552,-944,29.0,17.5,1.8,29.0,1.1,-31.0,5.73,2.35,-26.5,33.0
2012-06-13 00:02:00,0.0,,,,,,,,,,,0.99,-25.62,-24.38,-64,552,-944,29.0,17.6,1.9,29.0,1.1,-31.0,5.73,2.35,-26.5,33.1
2012-06-13 00:03:00,0.0,,,,,,,,,,,1.00,-25.63,-24.68,-64,552,-944,29.0,17.6,2.0,29.0,1.1,-31.1,5.73,2.35,-26.5,33.1
2012-06-13 00:04:00,0.0,,,,,,,,,,,1.06,-25.63,-24.97,-64,552,-944,29.0,17.6,2.0,29.0,1.2,-31.0,5.73,2.35,-26.5,33.1
2012-06-13 00:05:00,0.0,,,,,,,,,,,1.07,-25.64,-25.23,-64,552,-944,29.1,17.7,2.1,29.0,1.1,-31.0,5.73,2.36,-26.5,33.1
2012-06-13 00:06:00,0.0,,,,,,,,,,,1.03,-25.66,-25.48,-64,552,-944,29.1,17.7,2.1,29.0,1.1,-31.1,5.73,2.36,-26.4,33.1
2012-06-13 00:07:00,0.0,,,,,,,,,,,0.94,-25.67,-25.66,-64,552,-944,29.1,17.8,2.2,29.0,1.1,-31.0,5.73,2.36,-26.5,33.1
2012-06-13 00:08:00,0.0,,,,,,,,,,,1.01,-25.68,-25.42,-64,552,-944,29.1,17.7,2.1,29.0,1.1,-31.0,5.73,2.36,-26.4,33.1
2012-06-13 00:09:00,0.0,,,,,,,,,,,1.01,-25.68,-25.52,-64,552,-944,29.1,17.6,2.0,29.0,1.1,-31.0,5.73,2.36,-26.4,33.0
2012-06-13 00:10:00,0.0,,,,,,,,,,,1.05,-25.69,-25.69,-64,552,-944,29.1,17.6,2.0,29.0,1.1,-31.1,5.73,2.36,-26.5,33.0
2012-06-13 00:11:00,0.0,,,,,,,,,,,1.05,-25.70,-25.46,-64,552,-944,29.1,17.8,2.2,29.0,1.1,-31.2,5.73,2.36,-26.5,33.1
2012-06-13 00:12:00,0.0,,,,,,,,,,,1.02,-25.71,-25.51,-64,552,-944,29.1,17.8,2.2,29.0,1.1,-31.3,5.73,2.36,-26.4,33.1
2012-06-13 00:13:00,0.0,1.8846,0.0008,399.62,0.17,2.5,9.0,138.08,30.08,24.63,36.34,0.98,-25.71,-25.69,-64,552,-944,29.1,17.8,2.2,29.0,1.1,-31.3,5.73,2.36,-26.4,33.1
2012-06-13 00:14:00,0.0,1.8849,0.0008,399.53,0.18,5.6,13.4,138.08,30.08,24.63,36.35,1.02,-25.73,-25.54,-64,552,-944,29.1,17.7,2.1,29.0,1.1,-31.2,5.73,2.36,-26.4,33.0
2012-06-13 00:15:00,0.0,1.8846,0.0008,399.60,0.24,6.3,14.3,138.07,30.08,24.64,36.35,1.02,-25.73,-25.50,-64,552,-944,29.1,17.7,2.1,29.0,1.1,-31.3,5.73,2.36,-26.4,33.1
2012-06-13 00:16:00,0.0,,,,,,,,,,,1.08,-25.74,-25.67,-64,552,-944,29.1,17.8,2.2,29.0,1.1,-31.3,5.73,2.36,-26.4,33.1
2012-06-13 00:17:00,0.0,,,,,,,,,,,0.99,-25.75,-25.65,-64,552,-944,29.1,17.9,2.2,29.0,1.1,-31.3,5.73,2.35,-26.5,33.0
2012-06-13 00:18:00,0.0,,,,,,,,,,,1.05,-25.76,-25.51,-64,552,-944,29.1,18.0,2.3,29.0,1.1,-31.3,5.73,2.35,-26.5,33.0
2012-06-13 00:19:00,0.0,,,,,,,,,,,0.99,-25.77,-25.67,-64,552,-944,29.1,18.2,2.5,29.0,1.1,-31.2,5.73,2.35,-26.5,33.0
2012-06-13 00:20:00,0.0,,,,,,,,,,,0.93,-25.77,-25.73,-64,552,-944,29.1,18.1,2.4,29.0,1.1,-31.3,5.73,2.36,-26.5,33.1
2012-06-13 00:21:00,0.0,,,,,,,,,,,1.03,-25.78,-25.52,-64,552,-944,29.1,18.2,2.5,29.0,1.1,-31.3,5.73,2.36,-26.5,33.0
2012-06-13 00:22:00,0.0,,,,,,,,,,,0.96,-25.68,-25.65,-64,552,-944,29.1,18.2,2.5,29.0,1.1,-31.1,5.73,2.35,-26.5,33.1
2012-06-13 00:23:00,0.0,,,,,,,,,,,0.92,-24.44,-25.84,-64,552,-944,29.1,18.2,2.5,29.0,1.2,-30.9,5.73,2.36,-26.5,33.1
2012-06-13 00:24:00,0.0,,,,,,,,,,,0.94,-22.56,-25.98,-64,552,-944,29.1,18.3,2.5,29.0,1.3,-29.7,5.73,2.36,-26.5,33.0
2012-06-13 00:25:00,0.0,,,,,,,,,,,0.95,-20.62,-26.07,-64,552,-944,29.1,18.3,2.5,29.0,1.4,-28.8,5.73,2.36,-26.5,32.9
2012-06-13 00:26:00,0.0,,,,,,,,,,,0.96,-18.75,-26.13,-64,552,-944,29.1,18.3,2.5,29.0,1.5,-28.5,5.73,2.36,-26.5,32.9
2012-06-13 00:27:00,0.0,,,,,,,,,,,0.95,-16.96,-26.18,-64,552,-944,29.0,18.3,2.6,29.0,1.5,-28.4,5.73,2.37,-26.5,32.8
2012-06-13 00:28:00,0.0,,,,,,,,,,,0.91,-15.26,-26.20,-64,552,-944,29.1,18.3,2.6,29.0,1.4,-28.7,5.73,2.36,-26.5,32.9
2012-06-13 00:29:00,0.0,,,,,,,,,,,0.89,-13.65,-26.22,-64,552,-944,29.1,18.3,2.6,29.0,1.4,-28.9,5.73,2.36,-26.6,32.9
2012-06-13 00:30:00,0.0,,,,,,,,,,,0.89,-12.12,-26.23,-64,552,-944,29.1,18.0,2.3,29.0,1.4,-29.2,5.73,2.36,-26.6,33.0
2012-06-13 00:31:00,0.0,,,,,,,,,,,0.90,-10.66,-26.24,-64,552,-944,29.1,18.2,2.5,29.0,1.3,-29.3,5.73,2.36,-26.6,33.0
2012-06-13 00:32:00,0.0,,,,,,,,,,,0.92,-9.27,-26.25,-64,552,-944,29.1,18.2,2.4,29.0,1.3,-29.3,5.73,2.36,-26.6,33.0
2012-06-13 00:33:00,0.0,,,,,,,,,,,0.94,-7.96,-26.26,-64,552,-944,29.1,18.3,2.5,29.0,1.3,-29.6,5.73,2.35,-26.6,33.0
2012-06-13 00:34:00,0.0,,,,,,,,,,,0.94,-6.71,-26.27,-64,552,-944,29.1,18.4,2.6,29.0,1.3,-29.7,5.73,2.35,-26.6,33.0
2012-06-13 00:35:00,0.0,,,,,,,,,,,0.95,-5.53,-26.27,-64,552,-944,29.0,18.3,2.5,29.0,1.3,-29.8,5.73,2.36,-26.6,33.0
2012-06-13 00:36:00,0.0,,,,,,,,,,,0.95,-4.41,-26.27,-64,552,-944,29.0,18.2,2.5,29.0,1.3,-30.1,5.73,2.36,-26.6,33.0
2012-06-13 00:37:00,0.0,,,,,,,,,,,0.96,-3.34,-26.27,-64,552,-944,29.0,18.2,2.4,29.0,1.3,-30.1,5.73,2.36,-26.6,33.0
2012-06-13 00:38:00,0.0,,,,,,,,,,,0.95,-2.32,-26.27,-64,552,-944,29.0,18.4,2.6,29.0,1.2,-30.3,5.73,2.36,-26.6,33.0
2012-06-13 00:39:00,0.0,,,,,,,,,,,0.93,-1.36,-26.26,-64,552,-944,29.1,18.6,2.7,29.0,1.2,-30.3,5.73,2.36,-26.5,33.0
2012-06-13 00:40:00,0.0,,,,,,,,,,,0.93,-0.45,-26.26,-64,552,-944,29.0,18.5,2.7,29.0,1.2,-30.4,5.73,2.37,-26.6,33.0
2012-06-13 00:41:00,0.0,,,,,,,,,,,0.93,0.42,-26.26,-64,552,-944,29.0,18.6,2.8,29.0,1.2,-30.6,5.73,2.37,-26.5,33.0
2012-06-13 00:42:00,0.0,,,,,,,,,,,0.93,1.25,-26.25,-64,552,-944,29.0,18.9,3.0,29.0,1.2,-30.5,5.73,2.37,-26.5,32.9
2012-06-13 00:43:00,0.0,,,,,,,,,,,0.92,2.01,-26.24,-64,552,-944,29.0,19.2,3.2,29.0,1.2,-30.5,5.73,2.37,-26.5,32.9
2012-06-13 00:44:00,0.0,,,,,,,,,,,0.94,2.71,-26.23,-64,552,-944,29.0,19.3,3.3,29.0,1.2,-30.8,5.73,2.37,-26.5,32.9
2012-06-13 00:45:00,0.0,,,,,,,,,,,0.93,3.15,-26.22,-64,552,-944,29.0,19.3,3.3,29.0,1.2,-30.8,5.73,2.37,-26.5,32.9
2012-06-13 00:46:00,0.0,,,,,,,,,,,0.94,3.56,-26.21,-64,552,-944,29.0,19.5,3.4,29.0,1.2,-30.8,5.73,2.36,-26.5,32.9
2012-06-13 00:47:00,0.0,,,,,,,,,,,0.95,4.04,-26.21,-64,552,-944,29.0,19.4,3.3,29.0,1.2,-30.8,5.73,2.36,-26.5,32.9
2012-06-13 00:48:00,0.0,,,,,,,,,,,0.93,4.54,-26.20,-64,552,-944,29.0,19.4,3.3,28.9,1.2,-31.0,5.73,2.36,-26.5,32.9
2012-06-13 00:49:00,0.0,,,,,,,,,,,0.94,5.10,-26.18,-64,552,-944,29.0,19.6,3.5,29.0,1.1,-31.0,5.73,2.36,-26.5,32.9
2012-06-13 00:50:00,0.0,,,,,,,,,,,0.95,5.65,-26.18,-64,552,-944,29.0,19.6,3.5,29.0,1.1,-31.0,5.73,2.36,-26.5,32.9
2012-06-13 00:51:00,0.0,,,,,,,,,,,0.96,6.17,-26.17,-64,552,-944,29.0,19.6,3.5,29.0,1.1,-31.1,5.73,2.36,-26.5,33.0
2012-06-13 00:52:00,0.0,,,,,,,,,,,0.95,6.67,-26.16,-64,552,-944,29.0,19.5,3.4,29.0,1.1,-31.1,5.73,2.36,-26.5,33.0
2012-06-13 00:53:00,0.0,,,,,,,,,,,0.95,7.14,-26.15,-64,552,-944,29.0,19.7,3.6,29.0,1.1,-31.1,5.73,2.36,-26.5,33.0
2012-06-13 00:54:00,0.0,,,,,,,,,,,0.95,7.60,-26.14,-64,552,-944,29.0,19.7,3.5,29.0,1.1,-31.0,5.73,2.36,-26.5,33.0
2012-06-13 00:55:00,0.0,,,,,,,,,,,0.96,8.04,-26.13,-64,552,-944,29.0,19.5,3.4,29.0,1.1,-31.0,5.73,2.37,-26.5,33.0
2012-06-13 00:56:00,0.0,,,,,,,,,,,0.95,8.45,-26.13,-64,552,-944,29.0,19.6,3.4,29.0,1.1,-31.0,5.73,2.37,-26.5,33.0
2012-06-13 00:57:00,0.0,,,,,,,,,,,0.96,8.86,-26.12,-64,552,-944,29.0,19.5,3.4,28.9,1.1,-31.1,5.73,2.37,-26.5,33.0
2012-06-13 00:58:00,0.0,,,,,,,,,,,0.96,9.25,-26.11,-64,552,-944,29.0,19.6,3.5,29.0,1.1,-31.1,5.73,2.37,-26.5,33.0
2012-06-13 00:59:00,0.0,,,,,,,,,,,0.95,9.63,-26.10,-64,552,-944,29.0,19.7,3.5,29.0,1.2,-31.0,5.73,2.37,-26.5,33.0
2012-06-13 01:00:00,0.0,,,,,,,,,,,0.95,10.00,-26.09,-64,552,-944,29.0,19.5,3.4,28.9,1.1,-31.1,5.73,2.37,-26.5,33.0
2012-06-13 01:01:00,0.0,,,,,,,,,,,0.95,10.36,-26.08,-64,552,-944,29.0,19.6,3.5,29.0,1.1,-31.1,5.73,2.36,-26.5,32.9
2012-06-13 01:02:00,0.0,,,,,,,,,,,0.96,10.71,-26.08,-64,552,-944,29.0,19.7,3.6,28.9,1.1,-31.1,5.73,2.36,-26.5,33.0
2012-06-13 01:03:00,0.0,,,,,,,,,,,0.96,11.05,-26.07,-64,552,-944,29.0,19.8,3.6,29.0,1.1,-31.0,5.73,2.36,-26.5,33.0
2012-06-13 01:04:00,0.0,,,,,,,,,,,0.96,11.38,-26.06,-64,552,-944,29.0,19.9,3.7,28.9,1.2,-31.0,5.73,2.36,-26.6,32.9
2012-06-13 01:05:00,0.0,,,,,,,,,,,0.97,11.70,-26.05,-64,552,-944,29.0,19.9,3.7,28.9,1.1,-31.2,5.73,2.35,-26.5,32.9
2012-06-13 01:06:00,0.0,,,,,,,,,,,0.96,12.01,-26.05,-64,552,-944,29.0,19.8,3.6,28.9,1.1,-31.3,5.73,2.36,-26.5,32.9
2012-06-13 01:07:00,0.0,,,,,,,,,,,0.97,12.30,-26.04,-64,552,-944,29.0,20.0,3.8,28.9,1.1,-31.0,5.73,2.36,-26.5,32.9
2012-06-13 01:08:00,0.0,,,,,,,,,,,0.96,12.59,-26.03,-64,552,-944,29.0,20.3,3.9,28.9,1.1,-31.1,5.73,2.36,-26.5,32.9
2012-06-13 01:09:00,0.0,,,,,,,,,,,0.96,12.86,-26.03,-64,552,-944,29.0,20.4,4.0,28.9,1.1,-31.1,5.73,2.36,-26.5,33.0
2012-06-13 01:10:00,0.0,,,,,,,,,,,0.96,13.12,-26.02,-64,552,-944,29.0,20.4,4.0,29.0,1.1,-31.1,5.73,2.37,-26.5,33.0
2012-06-13 01:11:00,0.0,,,,,,,,,,,0.96,13.37,-26.01,-64,552,-944,29.0,20.4,4.0,28.9,1.1,-31.1,5.73,2.37,-26.6,32.9
2012-06-13 01:12:00,0.0,,,,,,,,,,,0.96,13.61,-26.00,-64,552,-944,29.0,20.3,3.9,28.9,1.1,-31.1,5.73,2.37,-26.6,32.9
2012-06-13 01:13:00,0.0,1.8846,0.0008,399.62,0.17,2.5,9.0,138.08,30.08,24.63,36.34,0.96,13.84,-25.99,-64,552,-944,29.0,20.3,3.9,28.9,1.1,-31.0,5.73,2.37,-26.6,32.9
2012-06-13 01:14:00,0.0,1.8849,0.0008,399.53,0.18,5.6,13.4,138.08,30.08,24.63,36.35,0.96,14.06,-25.99,-64,552,-944,29.0,20.3,4.0,28.9,1.1,-31.2,5.73,2.37,-26.5,32.9
2012-06-13 01:15:00,0.0,1.8846,0.0008,399.60,0.24,6.3,14.3,138.07,30.08,24.64,36.35,0.95,14.28,-25.98,-64,552,-944,29.0,20.3,3.9,28.9,1.1,-31.1,5.73,2.36,-26.6,33.0
2012-06-13 01:16:00,0.0,,,,,,,,,,,0.96,14.49,-25.97,-64,552,-944,29.0,20.4,4.0,28.9,1.1,-31.2,5.73,2.37,-26.5,33.0
2012-06-13 01:17:00,0.0,,,,,,,,,,,0.96,14.68,-25.97,-64,552,-944,29.0,20.4,4.0,28.9,1.1,-31.2,5.73,2.36,-26.5,33.0
2012-06-13 01:18:00,0.0,,,,,,,,,,,0.96,14.87,-25.96,-64,552,-944,29.0,20.5,4.1,29.0,1.1,-31.3,5.73,2.36,-26.6,32.9
2012-06-13 01:19:00,0.0,,,,,,,,,,,0.96,15.05,-25.96,-64,552,-944,29.0,20.3,4.0,28.9,1.1,-31.3,5.73,2.36,-26.6,32.9
2012-06-13 01:20:00,0.0,,,,,,,,,,,0.96,15.22,-25.95,-64,552,-944,29.0,20.2,3.9,28.9,1.1,-31.4,5.73,2.36,-26.6,32.9
2012-06-13 01:21:00,0.0,,,,,,,,,,,0.96,15.39,-25.95,-64,552,-944,29.0,20.3,4.0,28.9,1.1,-31.3,5.73,2.36,-26.6,33.0
2012-06-13 01:22:00,0.0,,,,,,,,,,,0.96,15.54,-25.94,-64,552,-944,29.0,20.3,4.0,28.9,1.1,-31.3,5.73,2.36,-26.6,32.9
2012-06-13 01:23:00,0.0,,,,,,,,,,,0.96,15.69,-25.94,-64,552,-944,29.0,20.3,4.0,28.9,1.1,-31.4,5.73,2.36,-26.6,32.9
2012-06-13 01:24:00,0.0,,,,,,,,,,,0.96,15.83,-25.94,-64,552,-944,29.0,20.2,3.9,28.9,1.1,-31.3,5.73,2.36,-26.6,32.8
2012-06-13 01:25:00,0.0,,,,,,,,,,,0.96,15.97,-25.93,-64,552,-944,29.0,20.3,3.9,28.9,1.1,-31.4,5.73,2.37,-26.6,32.8
2012-06-13 01:26:00,0.0,,,,,,,,,,,0.96,16.10,-25.92,-64,552,-944,28.9,20.4,4.0,28.9,1.1,-31.3,5.73,2.37,-26.6,32.8
2012-06-13 01:27:00,0.0,,,,,,,,,,,0.96,16.23,-25.92,-64,552,-944,29.0,20.5,4.0,28.9,1.1,-31.3,5.73,2.37,-26.6,32.9
2012-06-13 01:28:00,0.0,,,,,,,,,,,0.95,16.35,-25.92,-64,552,-944,28.9,20.4,4.0,28.9,1.1,-31.3,5.73,2.37,-26.6,32.9
2012-06-13 01:29:00,0.0,,,,,,,,,,,0.95,16.46,-25.91,-64,552,-944,29.0,20.4,4.0,28.9,1.1,-31.3,5.73,2.36,-26.7,32.9
2012-06-13 01:30:00,0.0,,,,,,,,,,,0.96,16.57,-25.91,-64,552,-944,29.0,20.3,4.0,28.9,1.1,-31.3,5.73,2.37,-26.7,32.9
2012-06-13 01:31:00,0.0,,,,,,,,,,,0.96,16.68,-25.90,-64,552,-944,29.0,20.0,3.7,28.9,1.1,-31.3,5.73,2.36,-26.6,32.9
2012-06-13 01:32:00,0.0,,,,,,,,,,,0.95,16.78,-25.90,-64,552,-944,29.0,20.1,3.8,28.9,1.1,-31.3,5.73,2.36,-26.6,32.9
2012-06-13 01:33:00,0.0,,,,,,,,,,,0.96,16.87,-25.89,-64,552,-944,29.0,20.3,4.0,28.9,1.1,-31.4,5.73,2.36,-26.7,32.9
2012-06-13 01:34:00,0.0,,,,,,,,,,,0.96,16.97,-25.89,-64,552,-943,29.0,20.6,4.1,28.9,1.1,-31.3,5.73,2.36,-26.7,32.9
2012-06-13 01:35:00,0.0,,,,,,,,,,,0.97,17.06,-25.89,-64,552,-943,29.0,20.3,3.9,28.9,1.1,-31.3,5.73,2.36,-26.7,33.0
2012-06-13 01:36:00,0.0,,,,,,,,,,,0.96,17.14,-25.89,-64,552,-944,28.9,20.7,4.2,28.9,1.1,-31.3,5.73,2.36,-26.6,33.0
2012-06-13 01:37:00,0.0,,,,,,,,,,,0.97,17.22,-25.89,-64,552,-944,29.0,20.4,4.0,28.9,1.1,-31.3,5.73,2.36,-26.6,33.0
2012-06-13 01:38:00,0.0,,,,,,,,,,,0.97,17.30,-25.88,-64,552,-944,29.0,20.6,4.2,28.9,1.1,-31.3,5.73,2.36,-26.6,33.0
2012-06-13 01:39:00,0.0,,,,,,,,,,,0.96,17.37,-25.88,-64,552,-943,29.0,20.6,4.2,28.9,1.1,-31.3,5.73,2.37,-26.7,33.0
2012-06-13 01:40:00,0.0,,,,,,,,,,,0.96,17.44,-25.88,-64,552,-943,29.0,20.6,4.2,28.9,1.1,-31.2,5.73,2.37,-26.7,32.9
2012-06-13 01:41:00,0.0,,,,,,,,,,,0.96,17.51,-25.87,-64,552,-943,29.0,20.3,4.0,28.9,1.1,-31.3,5.73,2.37,-26.7,32.9
2012-06-13 01:42:00,0.0,,,,,,,,,,,0.95,17.58,-25.87,-64,552,-943,29.0,20.2,3.9,28.9,1.1,-31.3,5.73,2.37,-26.7,32.9
2012-06-13 01:43:00,0.0,,,,,,,,,,,0.97,17.64,-25.87,-64,552,-943,29.0,20.0,3.8,28.9,1.1,-31.2,5.73,2.36,-26.7,32.9
2012-06-13 01:44:00,0.0,,,,,,,,,,,0.97,17.69,-25.86,-64,552,-943,29.0,20.1,3.8,28.9,1.1,-31.2,5.73,2.36,-26.7,32.9
2012-06-13 01:45:00,0.0,,,,,,,,,,,0.97,17.75,-25.86,-64,552,-943,29.0,20.1,3.8,28.9,1.1,-31.3,5.73,2.36,-26.7,32.9
2012-06-13 01:46:00,0.0,,,,,,,,,,,0.96,17.81,-25.85,-64,552,-943,29.0,19.8,3.6,28.9,1.1,-31.3,5.73,2.36,-26.7,33.0
2012-06-13 01:47:00,0.0,,,,,,,,,,,0.95,17.86,-25.86,-64,552,-944,29.0,20.0,3.7,28.9,1.1,-31.3,5.73,2.36,-26.7,33.0
2012-06-13 01:48:00,0.0,,,,,,,,,,,0.97,17.91,-25.85,-64,552,-944,29.0,19.7,3.5,28.9,1.1,-31.3,5.73,2.35,-26.7,33.0
2012-06-13 01:49:00,0.0,,,,,,,,,,,0.97,17.96,-25.85,-64,552,-943,29.0,19.7,3.5,29.0,1.1,-31.3,5.73,2.36,-26.6,33.0
2012-06-13 01:50:00,0.0,,,,,,,,,,,0.97,18.01,-25.84,-64,552,-943,29.0,19.8,3.6,29.0,1.1,-31.3,5.73,2.36,-26.7,33.0
2012-06-13 01:51:00,0.0,,,,,,,,,,,0.95,18.05,-25.85,-64,552,-944,29.0,20.0,3.8,29.0,1.1,-31.3,5.73,2.36,-26.7,33.0
2012-06-13 01:52:00,0.0,,,,,,,,,,,0.97,18.09,-25.84,-64,552,-944,29.0,20.1,3.8,28.9,1.1,-31.1,5.73,2.36,-26.7,33.0
2012-06-13 01:53:00,0.0,,,,,,,,,,,0.96,18.13,-25.84,-64,552,-944,29.0,20.1,3.9,28.9,1.1,-31.2,5.73,2.36,-26.7,33.0
2012-06-13 01:54:00,0.0,,,,,,,,,,,0.96,18.16,-25.84,-64,552,-943,29.0,20.5,4.1,28.9,1.1,-31.2,5.73,2.37,-26.7,32.9
2012-06-13 01:55:00,0.0,,,,,,,,,,,0.97,18.20,-25.83,-64,552,-943,29.0,20.5,4.1,28.9,1.1,-31.2,5.73,2.37,-26.7,32.8
2012-06-13 01:56:00,0.0,,,,,,,,,,,0.96,18.24,-25.83,-64,552,-943,29.0,20.6,4.2,28.9,1.1,-31.2,5.73,2.36,-26.7,32.9
2012-06-13 01:57:00,0.0,,,,,,,,,,,0.97,18.27,-25.83,-64,552,-943,29.0,20.7,4.2,29.0,1.1,-31.3,5.73,2.36,-26.7,32.9
2012-06-13 01:58:00,0.0,,,,,,,,,,,0.97,18.30,-25.83,-64,552,-943,29.0,20.6,4.2,28.9,1.1,-31.3,5.73,2.36,-26.7,32.9
2012-06-13 01:59:00,0.0,,,,,,,,,,,0.98,18.33,-25.83,-64,552,-943,29.0,20.6,4.1,28.9,1.1,-31.3,5.73,2.36,-26.7,32.9
2012-06-13 02:00:00,0.0,,,,,,,,,,,0.98,18.36,-25.83,-64,552,-943,29.0,20.6,4.2,29.0,1.1,-31.2,5.73,2.36,-26.7,32.8
2012-06-13 02:01:00,0.0,,,,,,,,,,,0.96,18.39,-25.83,-64,552,-943,29.0,20.4,4.0,28.9,1.1,-31.3,5.73,2.35,-26.7,32.9
2012-06-13 02:02:00,0.0,,,,,,,,,,,0.97,18.42,-25.82,-64,552,-944,29.0,20.2,3.9,28.9,1.1,-31.3,5.73,2.36,-26.7,33.0
2012-06-13 02:03:00,0.0,,,,,,,,,,,0.96,18.45,-25.82,-64,552,-943,29.0,20.1,3.8,28.9,1.1,-31.3,5.73,2.36,-26.7,33.0
2012-06-13 02:04:00,0.0,,,,,,,,,,,0.97,18.47,-25.82,-64,552,-943,29.0,20.1,3.8,29.0,1.1,-31.3,5.73,2.36,-26.7,33.0
2012-06-13 02:05:00,0.0,,,,,,,,,,,0.98,18.49,-25.82,-64,552,-943,29.0,20.4,4.0,29.0,1.1,-31.3,5.73,2.36,-26.7,33.0
2012-06-13 02:06:00,0.0,,,,,,,,,,,0.97,18.52,-25.82,-64,552,-943,29.0,20.3,4.0,28.9,1.1,-31.3,5.73,2.37,-26.7,32.9
2012-06-13 02:07:00,0.0,,,,,,,,,,,0.96,18.54,-25.82,-64,552,-944,29.0,20.2,3.9,29.0,1.1,-31.3,5.73,2.37,-26.7,33.0
2012-06-13 02:08:00,0.0,,,,,,,,,,,0.98,18.55,-25.82,-64,552,-944,29.0,20.3,4.0,29.0,1.1,-31.3,5.73,2.37,-26.7,33.0
2012-06-13 02:09:00,0.0,,,,,,,,,,,0.98,18.58,-25.82,-64,552,-943,29.0,20.1,3.9,29.0,1.1,-31.3,5.73,2.36,-26.7,33.0
2012-06-13 02:10:00,0.0,,,,,,,,,,,0.96,18.60,-25.81,-64,552,-944,29.0,20.2,3.9,29.0,1.1,-31.2,5.73,2.36,-26.7,33.0
2012-06-13 02:11:00,0.0,,,,,,,,,,,0.96,18.61,-25.82,-64,552,-943,29.0,19.9,3.7,29.0,1.1,-31.4,5.73,2.36,-26.7,33.0
2012-06-13 02:12:00,0.0,,,,,,,,,,,0.98,18.63,-25.81,-64,552,-944,29.0,19.9,3.7,29.0,1.1,-31.3,5.73,2.36,-26.7,33.0
2012-06-13 02:13:00,0.0,1.8846,0.0008,399.62,0.17,2.5,9.0,138.08,30.08,24.63,36.34,0.98,18.65,-25.81,-64,552,-943,29.0,20.1,3.9,29.0,1.1,-31.3,5.73,2.35,-26.7,33.0
2012-06-13 02:14:00,0.0,1.8849,0.0008,399.53,0.18,5.6,13.4,138.08,30.08,24.63,36.35,0.98,18.67,-25.81,-64,552,-943,29.0,20.2,3.9,29.0,1.1,-31.3,5.73,2.36,-26.7,33.0
2012-06-13 02:15:00,0.0,1.8846,0.0008,399.60,0.24,6.3,14.3,138.07,30.08,24.64,36.35,0.96,18.68,-25.81,-64,552,-944,29.0,20.1,3.8,29.0,1.1,-31.2,5.73,2.36,-26.7,32.9
2012-06-13 02:16:00,0.0,,,,,,,,,,,0.98,18.69,-25.81,-64,552,-944,29.0,20.1,3.9,29.0,1.1,-31.3,5.73,2.37,-26.7,33.0
2012-06-13 02:17:00,0.0,,,,,,,,,,,0.97,18.71,-25.81,-64,552,-944,29.0,20.1,3.8,29.0,1.1,-31.3,5.73,2.36,-26.7,33.0
2012-06-13 02:18:00,0.0,,,,,,,,,,,0.98,18.72,-25.80,-64,552,-943,29.0,20.0,3.8,29.0,1.1,-31.3,5.73,2.36,-26.7,33.0
2012-06-13 02:19:00,0.0,,,,,,,,,,,0.96,18.74,-25.80,-64,552,-943,29.0,20.0,3.8,29.0,1.1,-31.3,5.73,2.37,-26.7,33.0
2012-06-13 02:20:00,0.0,,,,,,,,,,,1.04,18.38,-25.80,-64,552,-943,29.0,20.0,3.7,29.0,1.1,-31.3,5.73,2.36,-26.7,32.9
2012-06-13 02:21:00,0.0,,,,,,,,,,,1.10,16.59,-25.81,-64,552,-944,29.0,20.3,4.0,29.0,1.1,-31.3,5.73,2.36,-26.7,32.9
2012-06-13 02:22:00,0.0,,,,,,,,,,,1.04,14.29,-25.81,-64,552,-943,29.0,20.2,3.9,29.0,1.1,-31.3,5.73,2.36,-26.7,33.0
2012-06-13 02:23:00,0.0,,,,,,,,,,,1.09,11.96,-25.81,-64,552,-943,29.1,20.2,3.9,29.0,1.1,-31.3,5.73,2.36,-26.7,33.0
2012-06-13 02:24:00,0.0,,,,,,,,,,,1.04,9.67,-25.80,-64,552,-943,29.0,20.3,4.0,29.0,1.1,-31.2,5.73,2.36,-26.7,33.0
2012-06-13 02:25:00,0.0,,,,,,,,,,,1.05,7.48,-25.79,-64,552,-944,29.0,20.1,3.9,29.0,1.1,-31.3,5.73,2.35,-26.7,33.0
2012-06-13 02:26:00,0.0,,,,,,,,,,,1.12,5.37,-25.77,-64,552,-944,29.1,20.1,3.9,29.0,1.1,-31.3,5.73,2.35,-26.7,32.9
2012-06-13 02:27:00,0.0,,,,,,,,,,,1.04,3.39,-25.75,-64,552,-943,29.0,20.2,3.9,29.0,1.1,-31.3,5.73,2.36,-26.7,33.0
2012-06-13 02:28:00,0.0,,,,,,,,,,,1.05,1.49,-25.74,-64,552,-943,29.1,19.8,3.7,29.0,1.1,-31.1,5.73,2.36,-26.7,33.0
2012-06-13 02:29:00,0.0,,,,,,,,,,,1.11,-0.30,-25.72,-64,552,-943,29.1,19.6,3.5,29.0,1.1,-31.1,5.73,2.36,-26.7,33.0
2012-06-13 02:30:00,0.0,,,,,,,,,,,1.04,-2.00,-25.70,-64,552,-943,29.1,19.9,3.7,29.0,1.1,-31.1,5.73,2.36,-26.7,32.9
2012-06-13 02:31:00,0.0,,,,,,,,,,,1.02,-3.59,-25.69,-64,552,-943,29.1,20.2,3.9,29.0,1.2,-31.0,5.73,2.36,-26.7,32.9
2012-06-13 02:32:00,0.0,,,,,,,,,,,1.11,-5.07,-25.68,-64,552,-943,29.1,20.1,3.9,29.0,1.1,-31.0,5.73,2.36,-26.7,33.0
2012-06-13 02:33:00,0.0,,,,,,,,,,,1.05,-6.44,-25.67,-64,552,-943,29.1,20.2,3.9,29.0,1.1,-31.0,5.73,2.36,-26.7,33.0
2012-06-13 02:34:00,0.0,,,,,,,,,,,1.00,-7.72,-25.66,-64,552,-943,29.1,19.8,3.6,29.0,1.2,-31.0,5.73,2.35,-26.7,33.0
2012-06-13 02:35:00,0.0,,,,,,,,,,,1.05,-8.84,-25.65,-64,552,-944,29.1,19.9,3.8,29.0,1.1,-31.0,5.73,2.35,-26.7,33.0
2012-06-13 02:36:00,0.0,,,,,,,,,,,1.12,-9.91,-25.64,-64,552,-943,29.1,19.9,3.8,29.0,1.1,-31.0,5.73,2.35,-26.6,33.0
2012-06-13 02:37:00,0.0,,,,,,,,,,,1.03,-10.97,-25.63,-64,552,-943,29.1,20.1,3.9,29.0,1.1,-31.0,5.73,2.35,-26.6,33.1
2012-06-13 02:38:00,0.0,,,,,,,,,,,1.01,-11.84,-25.63,-64,552,-944,29.1,20.0,3.8,29.1,1.1,-31.0,5.73,2.35,-26.6,33.1
2012-06-13 02:39:00,0.0,,,,,,,,,,,1.08,-12.86,-25.63,-64,552,-944,29.1,19.7,3.6,29.1,1.1,-31.0,5.73,2.35,-26.6,33.1
2012-06-13 02:40:00,0.0,,,,,,,,,,,1.08,-13.78,-25.63,-64,552,-944,29.1,19.5,3.5,29.1,1.1,-31.0,5.73,2.36,-26.6,33.2
2012-06-13 02:41:00,0.0,,,,,,,,,,,1.01,-14.63,-25.63,-64,552,-943,29.1,19.7,3.6,29.1,1.1,-31.0,5.73,2.36,-26.6,33.1
2012-06-13 02:42:00,0.0,,,,,,,,,,,1.01,-15.43,-25.63,-64,552,-944,29.1,20.0,3.9,29.1,1.1,-31.0,5.73,2.36,-26.6,33.1
2012-06-13 02:43:00,0.0,,,,,,,,,,,1.08,-16.21,-25.64,-64,553,-944,29.1,19.8,3.8,29.1,1.1,-31.0,5.73,2.36,-26.6,33.1
2012-06-13 02:44:00,0.0,,,,,,,,,,,1.08,-16.95,-25.64,-64,553,-944,29.1,19.8,3.7,29.1,1.1,-31.1,5.73,2.36,-26.6,33.1
2012-06-13 02:45:00,0.0,,,,,,,,,,,1.00,-17.65,-25.65,-64,552,-944,29.1,19.6,3.6,29.1,1.1,-31.1,5.73,2.35,-26.6,33.1
2012-06-13 02:46:00,0.0,,,,,,,,,,,1.02,-18.32,-25.65,-64,552,-943,29.1,19.6,3.6,29.1,1.1,-31.2,5.73,2.35,-26.7,33.1
2012-06-13 02:47:00,0.0,,,,,,,,,,,1.08,-18.93,-25.66,-64,553,-944,29.1,19.8,3.7,29.1,1.1,-31.2,5.73,2.34,-26.7,33.0
2012-06-13 02:48:00,0.0,,,,,,,,,,,1.07,-19.51,-25.67,-64,552,-944,29.1,19.8,3.7,29.1,1.1,-31.2,5.73,2.35,-26.7,33.0
2012-06-13 02:49:00,0.0,,,,,,,,,,,1.01,-20.06,-25.67,-64,552,-944,29.1,19.8,3.8,29.1,1.1,-31.3,5.73,2.35,-26.7,33.0
2012-06-13 02:50:00,0.0,,,,,,,,,,,0.99,-20.58,-25.68,-64,553,-944,29.1,20.2,4.0,29.1,1.1,-31.1,5.73,2.35,-26.7,33.0
2012-06-13 02:51:00,0.0,,,,,,,,,,,1.06,-21.06,-25.69,-64,553,-944,29.1,20.3,4.0,29.1,1.1,-31.2,5.73,2.35,-26.7,33.0
2012-06-13 02:52:00,0.0,,,,,,,,,,,1.09,-21.54,-25.70,-64,553,-944,29.1,20.4,4.2,29.1,1.1,-31.2,5.73,2.36,-26.7,33.1
2012-06-13 02:53:00,0.0,,,,,,,,,,,1.04,-21.97,-25.71,-64,552,-943,29.1,20.4,4.1,29.1,1.1,-31.2,5.73,2.37,-26.7,33.1
2012-06-13 02:54:00,0.0,,,,,,,,,,,0.98,-22.36,-25.72,-64,553,-943,29.1,20.2,4.0,29.1,1.1,-31.2,5.73,2.36,-26.6,33.1
2012-06-13 02:55:00,0.0,,,,,,,,,,,1.03,-22.75,-25.73,-64,553,-944,29.1,20.1,4.0,29.1,1.1,-31.2,5.73,2.35,-26.6,33.1
2012-06-13 02:56:00,0.0,,,,,,,,,,,1.09,-23.11,-25.74,-64,553,-944,29.2,20.3,4.1,29.1,1.1,-31.2,5.73,2.35,-26.6,33.2
2012-06-13 02:57:00,0.0,,,,,,,,,,,1.05,-23.45,-25.74,-64,553,-944,29.2,20.6,4.3,29.1,1.1,-31.2,5.73,2.35,-26.6,33.2
2012-06-13 02:58:00,0.0,,,,,,,,,,,0.99,-23.79,-25.75,-64,553,-943,29.2,20.4,4.2,29.1,1.1,-31.2,5.73,2.34,-26.6,33.2
2012-06-13 02:59:00,0.0,,,,,,,,,,,1.00,-24.11,-25.76,-64,553,-944,29.2,20.5,4.3,29.1,1.1,-31.2,5.73,2.35,-26.6,33.2
2012-06-13 03:00:00,0.0,,,,,,,,,,,1.05,-24.40,-25.77,-64,553,-944,29.2,20.7,4.4,29.1,1.1,-31.2,5.73,2.34,-26.6,33.2
2012-06-13 03:01:00,0.0,,,,,,,,,,,1.09,-24.68,-25.78,-64,553,-944,29.2,20.4,4.2,29.1,1.1,-31.3,5.73,2.35,-26.6,33.2
2012-06-13 03:02:00,0.0,,,,,,,,,,,1.02,-24.94,-25.78,-64,553,-943,29.2,21.0,4.6,29.1,1.1,-31.2,5.73,2.35,-26.6,33.2
2012-06-13 03:03:00,0.0,,,,,,,,,,,0.99,-25.18,-25.79,-64,553,-944,29.2,20.6,4.3,29.2,1.1,-31.2,5.73,2.36,-26.6,33.3
2012-06-13 03:04:00,0.0,,,,,,,,,,,1.04,-25.40,-25.80,-64,553,-944,29.2,20.4,4.2,29.2,1.1,-31.2,5.73,2.36,-26.6,33.3
2012-06-13 03:05:00,0.0,,,,,,,,,,,1.08,-25.62,-25.80,-64,553,-944,29.2,20.7,4.4,29.2,1.1,-31.3,5.73,2.36,-26.6,33.3
2012-06-13 03:06:00,0.0,,,,,,,,,,,1.02,-25.73,-25.81,-64,553,-944,29.2,20.8,4.5,29.2,1.1,-31.4,5.73,2.36,-26.6,33.3
2012-06-13 03:07:00,0.0,,,,,,,,,,,1.03,-25.40,-25.81,-64,553,-943,29.2,20.9,4.6,29.2,1.1,-31.5,5.73,2.35,-26.6,33.3
2012-06-13 03:08:00,0.0,,,,,,,,,,,0.98,-25.48,-25.83,-64,553,-944,29.2,20.4,4.3,29.2,1.1,-31.5,5.73,2.34,-26.6,33.3
2012-06-13 03:09:00,0.0,,,,,,,,,,,1.03,-25.66,-25.83,-64,553,-944,29.3,20.5,4.3,29.2,1.1,-31.4,5.73,2.34,-26.6,33.2
2012-06-13 03:10:00,0.0,,,,,,,,,,,0.98,-25.77,-25.85,-64,553,-944,29.3,20.8,4.5,29.2,1.1,-31.4,5.73,2.34,-26.6,33.3
2012-06-13 03:11:00,0.0,,,,,,,,,,,1.09,-25.44,-25.85,-65,553,-944,29.3,21.0,4.7,29.2,1.1,-31.4,5.73,2.35,-26.6,33.3
2012-06-13 03:12:00,0.0,,,,,,,,,,,1.08,-25.50,-25.86,-65,553,-944,29.3,21.3,4.9,29.2,1.1,-31.4,5.73,2.35,-26.6,33.3
2012-06-13 03:13:00,0.0,1.8846,0.0008,399.62,0.17,2.5,9.0,138.08,30.08,24.63,36.34,0.99,-25.67,-25.86,-65,553,-944,29.3,21.0,4.7,29.2,1.1,-31.4,5.73,2.36,-26.5,33.3
2012-06-13 03:14:00,0.0,1.8849,0.0008,399.53,0.18,5.6,13.4,138.08,30.08,24.63,36.35,0.93,-25.81,-25.87,-65,553,-944,29.3,21.1,4.7,29.2,1.1,-31.4,5.73,2.36,-26.6,33.3
2012-06-13 03:15:00,0.0,1.8846,0.0008,399.60,0.24,6.3,14.3,138.07,30.08,24.64,36.35,1.04,-25.48,-25.87,-65,553,-944,29.3,21.0,4.7,29.2,1.1,-31.4,5.73,2.36,-26.6,33.3
2012-06-13 03:16:00,0.0,,,,,,,,,,,1.03,-25.52,-25.88,-65,553,-944,29.3,21.1,4.8,29.2,1.1,-31.4,5.73,2.35,-26.6,33.3
2012-06-13 03:17:00,0.0,,,,,,,,,,,1.09,-25.69,-25.89,-65,553,-944,29.3,21.3,4.9,29.2,1.1,-31.3,5.73,2.35,-26.6,33.3
2012-06-13 03:18:00,0.0,,,,,,,,,,,1.00,-25.84,-25.90,-65,553,-944,29.3,21.1,4.8,29.2,1.1,-31.3,5.73,2.34,-26.6,33.3